www.pogodaiklimat.ru

Погода и климат >> Архив погоды >> Гренландия >> Nuuk


АРХИВ ПОГОДЫ в Nuuk

Время (UTC), дата Ветер
(напр.,м/с)
 
Видим.   Явления Облачность Т
(С)
Тd
(С)
f
(%)
Тe
(С)
Тes
(С)
Комфортность P
(гПа)
Po
(гПа)
Тmin
(С)
Tmax
(С)
R
(мм)
R24
(мм)
S
(см)
22 18.05 СЗ 5 40 км 1/0
[]
+1.8 +1.7 99 -4 -3 тепло 1019.2 1008.7
23 18.05 СЗ 5 45 км 1/0
[]
+1.2 -3 -2 тепло 1019.3 1008.7
00 19.05 СЗ 4 50 км 1/0
[]
+0.8 -2 -2 по сезону 1019.3 1008.8
01 19.05 СЗ 4 22 км 4/4 120 м
[]
+0.2 -4 -4 тепло 1019.2 1008.6
02 19.05 СЗ 4 500 м туман {дымка} 10/10 30 м
[]
-0.3 -4 -4 тепло 1019.0 1008.4
03 19.05 С 3 400 м туман {дымка} ?/? -0.7 -4 -4 по сезону 1019.0 1008.4
04 19.05 СВ 2 200 м туман 10/10 30 м
[]
-1.0 -3 -3 тепло 1018.8 1008.2
05 19.05 С 2 200 м туман 10/10 30 м
[]
-1.0 -2 -2 тепло 1018.9 1008.2
06 19.05 СЗ 1 200 м туман {дымка} ?/? -1.4 -2 -2 по сезону 1019.1 1008.5 -1.4 +3.3
07 19.05 З 2 300 м туман 10/10 30 м
[]
-1.5 -3 -3 тепло 1019.7 1009.0
08 19.05 ЮЗ 1 300 м туман 9/9 60 м
[]
-1.3 -0 -0 тепло 1019.9 1009.2
09 19.05 Ю 3 н/о {туман} 9/9 90 м
[]
-1.2 -4 -4 по сезону 1020.3 1009.7
10 19.05 Ю 5 н/о 9/9 60 м
[]
-1.0 -5 -5 тепло 1020.7 1010.0
11 19.05 Ю 6 н/о 9/9 60 м
[]
-0.8 -6 -6 по сезону 1021.0 1010.3
12 19.05 Ю 6 н/о {туман} 9/9 30 м
[]
-0.3 -5 -5 по сезону 1021.3 1010.7
13 19.05 Ю 6 35 км в посл. час туман 9/9 60 м
[]
+0.4 -4 -4 тепло 1021.7 1011.1
14 19.05 ЮЗ 4 50 км 9/9 90 м
[]
+0.8 -3 -2 тепло 1021.7 1011.1
15 19.05 З 3 3200 м дымка 9/9 60 м
[]
+0.6 -2 -1 по сезону 1021.7 1011.1
16 19.05 З 3 10 км 9/9 60 м
[]
+0.5 -2 -1 тепло 1022.0 1011.3
17 19.05 З 3 4200 м дымка 9/9 60 м
[]
+0.6 -2 -1 тепло 1021.8 1011.2
18 19.05 З 2 50 км {дымка} 9/9 90 м
[]
+1.0 +1.0 100 -3 -2 по сезону 1022.0 1011.4 -1.7 +1.1
19 19.05 З 2 50 км 9/9 150 м
[]
+1.7 +1.4 98 -1 -0 тепло 1022.1 1011.5
20 19.05 З 3 50 км 4/0
[]
+2.1 +1.8 98 -2 +2 тепло 1021.9 1011.3
21 19.05 З 4 50 км 4/0
[]
+1.7 +1.7 100 -3 -2 по сезону 1022.1 1011.5
22 19.05 З 3 50 км 6/0
[]
+1.4 -1 -0 тепло 1022.1 1011.5
23 19.05 СЗ 4 50 км 1/0
[]
+0.9 -2 -2 тепло 1022.2 1011.6
00 20.05 СЗ 4 30 км 1/1 150 м
[]
+0.5 -3 -3 по сезону 1022.2 1011.6
01 20.05 СЗ 4 24 км 9/9 120 м
[]
+0.2 -3 -3 тепло 1022.1 1011.4
02 20.05 3500 м дымка 9/9 60 м
[]
-0.2 1021.8 1011.2
03 20.05 С 5 200 м туман {дымка} ?/? -0.8 -5 -5 по сезону 1021.7 1011.0
04 20.05 С 4 200 м туман 10/10 30 м
[]
-1.1 -5 -5 тепло 1021.8 1011.1
05 20.05 С 5 200 м туман н/о -1.4 -6 -6 тепло 1021.7 1011.0
06 20.05 С 3 100 м туман {дымка} ?/? -1.3 -5 -5 по сезону 1021.9 1011.2 -1.7 +2.9
07 20.05 С 3 400 м туман 9/9 90 м
[]
-1.8 -5 -5 тепло 1022.1 1011.4
08 20.05 С 3 300 м туман 10/10 30 м
[]
-1.5 -4 -4 тепло 1022.1 1011.4
09 20.05 С 4 300 м туман 9/9 60 м
[]
-1.6 -6 -6 по сезону 1022.3 1011.6
10 20.05 С 3 300 м туман 10/10 30 м
[]
-1.3 -5 -5 тепло 1022.5 1011.8
11 20.05 С 3 400 м туман 10/10 60 м
[]
-0.8 -4 -4 тепло 1022.4 1011.7
12 20.05 С 2 400 м туман 9/9 60 м
[]
-0.3 -2 -2 по сезону 1022.2 1011.6
13 20.05 С 2 35 км в посл. час туман 10/10 60 м
[]
+0.2 -2 -2 тепло 1022.3 1011.6
14 20.05 С 2 50 км 6/6 120 м
[]
+1.4 0 +5 тепло 1022.2 1011.6
15 20.05 З 3 50 км {туман} 6/0
[]
+2.0 +2.0 100 -2 +5 по сезону 1022.2 1011.6
16 20.05 З 5 50 км 6/0
[]
+2.5 +1.8 95 -3 +1 тепло 1022.1 1011.5
17 20.05 З 5 50 км 1/0
[]
+2.3 +2.2 99 -3 +3 тепло 1022.2 1011.7
18 20.05 З 5 50 км {туман} 1/0
[]
+2.9 +1.6 91 -2 +3 по сезону 1022.1 1011.6 -2.0 +3.0
19 20.05 З 5 50 км 1/0
[]
+2.4 +2.0 97 -3 0 тепло 1022.2 1011.6
20 20.05 З 5 50 км 1/0
[]
+2.1 +2.1 100 -4 -1 тепло 1022.3 1011.7
21 20.05 СЗ 5 50 км 1/0
[]
+1.5 +1.5 100 -4 -3 по сезону 1022.3 1011.7
22 20.05 СЗ 5 50 км 9/9 60 м
[]
+0.7 -3 -3 тепло 1022.5 1011.9
23 20.05 С 5 50 км 10/10 60 м
[]
+0.3 -4 -4 тепло 1022.5 1011.9
00 21.05 С 5 50 км 10/10 60 м
[]
-0.1 -5 -5 по сезону 1022.7 1012.0
01 21.05 С 5 50 км 10/10 60 м
[]
-0.4 -5 -5 тепло 1022.7 1012.1
02 21.05 С 4 50 км 10/10 60 м
[]
-0.9 -5 -5 по сезону 1022.8 1012.1
03 21.05 С 5 30 км 10/10 60 м
[]
-1.1 -6 -6 по сезону 1022.5 1011.8
04 21.05 С 6 700 м туман {дымка} 9/9 30 м
[]
-1.2 -6 -6 по сезону 1022.3 1011.6
05 21.05 300 м туман 10/10 30 м
[]
-1.3 1022.3 1011.6
06 21.05 С 5 400 м туман {дымка} 9/9 60 м
[]
-1.3 -6 -6 по сезону 1022.4 1011.7 -1.5 +3.2
07 21.05 С 6 300 м туман 10/10 30 м
[]
-1.3 -6 -6 тепло 1022.5 1011.8
08 21.05 С 6 400 м туман 9/9 60 м
[]
-1.2 -7 -7 по сезону 1022.6 1011.9
09 21.05 С 6 200 м туман 9/9 30 м
[]
-1.0 -6 -6 по сезону 1022.5 1011.8
10 21.05 С 6 400 м туман 10/10 60 м
[]
-0.9 -6 -6 тепло 1022.7 1012.1
11 21.05 С 7 800 м туман 9/9 60 м
[]
-0.8 -6 -6 по сезону 1022.6 1011.9
12 21.05 С 5 500 м туман 9/9 60 м
[]
-0.5 -5 -5 по сезону 1022.9 1012.3
13 21.05 С 4 3400 м туман 9/9 30 м
[]
-0.1 -4 -3 по сезону 1023.1 1012.4
14 21.05 50 км {туман, дымка} 10/10 60 м
[]
+0.2 1022.9 1012.2
15 21.05 С 5 50 км {туман, дымка} 10/10 120 м
[]
+1.2 +1.2 100 -5 -5 по сезону 1022.5 1011.9
16 21.05 50 км 9/9 240 м
[]
+1.9 +1.5 97 1022.8 1012.2
17 21.05 С 6 50 км 6/6 270 м
[]
+2.3 +0.6 89 -4 -2 по сезону 1022.8 1012.3
18 21.05 С 6 50 км {туман, дымка} 1/0
[]
+2.7 +0.9 88 -3 0 по сезону 1023.0 1012.4 -1.4 +2.9
19 21.05 СЗ 6 50 км ясно +2.7 +0.2 84 -3 -1 тепло 1023.2 1012.7
20 21.05 СЗ 8 50 км 1/0
[]
+1.6 +0.3 91 -5 -4 по сезону 1023.4 1012.8
21 21.05 С 7 50 км 1/0
[]
+1.1 +0.2 94 -6 -5 прохладно 1023.5 1012.9
22 21.05 СЗ 7 50 км 1/1 180 м
[]
+0.8 +0.5 98 -6 -6 тепло 1023.6 1013.0
23 21.05 С 6 50 км 1/1 150 м
[]
+0.2 -5 -5 по сезону 1023.8 1013.1
00 22.05 С 7 50 км 10/10 180 м
[]
-0.6 -6 -6 по сезону 1023.8 1013.1
01 22.05 С 8 45 км 10/10 90 м
[]
-1.0 -7 -7 тепло 1023.6 1013.0
02 22.05 С 8 35 км 10/10 60 м
[]
-1.2 -7 -7 по сезону 1023.5 1012.8
03 22.05 С 7 15 км 10/10 60 м
[]
-1.3 -7 -7 прохладно 1023.1 1012.4
05 22.05 С 8 200 м туман {дымка} 9/9 60 м
[]
-1.4 -8 -8 по сезону 1022.2 1011.5
06 22.05 С 8 200 м туман {дымка} 9/9 60 м
[]
-1.0 -7 -7 по сезону 1022.2 1011.5 -1.6 +2.9
07 22.05 С 7 200 м туман 10/10 30 м
[]
-0.9 -7 -7 по сезону 1021.9 1011.3
08 22.05 100 м туман 10/10 60 м
[]
-1.1 1021.5 1010.8
09 22.05 С 7 100 м туман 6/6 30 м
[]
-1.1 -7 -7 прохладно 1021.4 1010.8
10 22.05 С 7 700 м осадки {туман} 6/6 30 м
[]
-0.6 -6 -6 тепло 1021.0 1010.4
11 22.05 С 7 50 км в посл. час морось {ливн. осадки} 1/1 30 м
[]
+0.3 -5 -4 по сезону 1020.9 1010.2
12 22.05 С 6 50 км {ливн. осадки, морось} 1/0
[]
+1.5 +1.5 100 -5 -2 по сезону 1020.6 1010.1 0.0
13 22.05 С 6 50 км 1/0
[]
+3.5 +1.4 86 -2 +2 тепло 1020.3 1009.9
14 22.05 С 6 50 км 4/0
[]
+6.5 +0.5 65 +2 +5 тепло 1019.8 1009.5
18 22.05 С 3 50 км 9/0
[]
+9.0 +2.1 62 +7 +11 тепло 1019.1 1008.8 -1.3 +9.1
19 22.05 СЗ 3 50 км 9/0
[]
+8.8 +2.4 64 +7 +10 тепло 1019.0 1008.7
20 22.05 С 2 50 км 9/0
[]
+9.0 +2.4 63 +8 +10 тепло 1018.9 1008.6
21 22.05 СЗ 5 50 км 9/0
[]
+4.8 +2.9 87 0 +1 по сезону 1018.8 1008.3
22 22.05 З 5 50 км 6/0
[]
+3.5 +2.7 94 -2 -1 тепло 1018.7 1008.3
23 22.05 СЗ 4 50 км 1/0
[]
+2.2 -1 -1 тепло 1018.6 1008.1
00 23.05 СЗ 4 50 км 1/0
[]
+1.4 -2 -2 по сезону 1018.7 1008.2
01 23.05 З 4 400 м туман {дымка} 10/10 30 м
[]
+0.2 -3 -3 тепло 1018.9 1008.3
02 23.05 З 3 12 км в посл. час туман 4/0
[]
-0.2 -3 -3 тепло 1019.1 1008.5
03 23.05 З 2 700 м туман {дымка} 4/4 30 м
[]
-0.6 -3 -3 по сезону 1018.8 1008.2
04 23.05 З 1 50 км в посл. час туман 9/0
[]
-0.4 -1 -1 тепло 1018.9 1008.3
05 23.05 СВ 1 50 км 6/0
[]
-0.3 +1 +1 тепло 1019.1 1008.5
06 23.05 С 1 50 км {туман, дымка} 9/9 30 м
[]
-0.6 -1 -1 по сезону 1019.3 1008.7 -0.8 +9.8
07 23.05 З 2 28 км 10/10 30 м
[]
-0.7 -2 -2 тепло 1019.6 1008.9
08 23.05 СЗ 2 600 м туман {дымка} 10/10 60 м
[]
-0.9 -2 -2 тепло 1019.7 1009.1
09 23.05 СВ 1 200 м туман {дымка} ?/? -0.7 -1 -1 по сезону 1019.8 1009.1
10 23.05 СВ 3 400 м туман 10/10 30 м
[]
-0.7 -3 -3 тепло 1019.8 1009.1
11 23.05 С 2 700 м туман 9/9 30 м
[]
+0.1 -1 -1 тепло 1019.9 1009.3
12 23.05 СЗ 2 50 км в посл. час туман {дымка} 1/0
[]
+1.4 0 +8 по сезону 1019.9 1009.3
13 23.05 СЗ 2 50 км 6/0
[]
+2.1 +2.1 100 -1 +6 тепло 1019.5 1009.0
14 23.05 СЗ 1 50 км 4/0
[]
+5.2 +2.5 83 +5 +16 опасность
простуды
1019.3 1008.9
15 23.05 З 2 45 км 9/0
[]
+5.9 +3.0 82 +4 +11 тепло 1018.9 1008.5
16 23.05 З 4 50 км 9/0
[]
+6.1 +3.0 80 +3 +7 тепло 1018.7 1008.3
17 23.05 СЗ 4 50 км 6/0
[]
+6.2 +3.0 80 +3 +8 тепло 1018.3 1008.0
18 23.05 СЗ 3 50 км 9/0
[]
+7.5 +2.7 72 +5 +10 тепло 1018.0 1007.7 -1.0 +7.9
19 23.05 СЗ 3 50 км 9/0
[]
+7.1 +2.5 73 +4 +8 тепло 1017.8 1007.5
20 23.05 С 4 50 км 9/0
[]
+6.2 +2.0 74 +3 +4 тепло 1017.5 1007.1
21 23.05 СЗ 5 50 км 9/0
[]
+5.6 +1.6 75 +1 +2 по сезону 1017.4 1007.0
22 23.05 СЗ 4 50 км 6/0
[]
+5.0 +1.7 79 +1 +2 тепло 1017.1 1006.7
23 23.05 СЗ 2 50 км 6/0
[]
+3.5 +1.7 88 0 +1 тепло 1017.0 1006.6
00 24.05 СЗ 4 50 км 4/0
[]
+1.4 -2 -2 по сезону 1016.9 1006.4
01 24.05 С 5 50 км 1/0
[]
+2.4 +0.8 89 -3 -3 тепло 1016.5 1006.0
02 24.05 С 6 50 км 6/0
[]
+1.0 -4 -4 тепло 1016.0 1005.5
03 24.05 С 6 50 км 1/0
[]
+1.2 -3 -3 по сезону 1015.5 1005.0
04 24.05 50 км 1/0
[]
+1.1 +1.1 100 1014.9 1004.4
05 24.05 С 6 50 км 4/0
[]
+0.3 -5 -5 по сезону 1014.7 1004.2
06 24.05 С 7 50 км 1/0
[]
+0.5 -5 -5 по сезону 1014.7 1004.1 +0.3 +8.4
07 24.05 С 7 50 км 1/0
[]
+0.3 -5 -5 тепло 1014.5 1004.0
08 24.05 С 7 45 км 1/0
[]
+0.6 -4 -4 тепло 1014.4 1003.9
09 24.05 С 6 50 км 9/0
[]
+1.3 -3 -3 по сезону 1014.1 1003.6
10 24.05 50 км 6/0
[]
+1.5 +1.5 100 1014.0 1003.5
11 24.05 С 7 50 км 9/0
[]
+2.9 +1.8 92 -3 -2 тепло 1013.8 1003.4
12 24.05 С 7 50 км 9/0
[]
+4.7 +2.2 84 -1 +1 по сезону 1013.6 1003.3
13 24.05 С 7 50 км 6/0
[]
+6.5 +1.4 70 +2 +4 тепло 1013.1 1002.8
14 24.05 С 5 50 км 4/0
[]
+6.9 +2.1 71 +3 +7 тепло 1013.0 1002.7
15 24.05 С 4 50 км 6/0
[]
+9.6 +1.4 57 +7 +13 тепло 1012.5 1002.3
16 24.05 50 км 6/0
[]
+11.1 +2.8 57 1012.1 1002.0
17 24.05 СЗ 3 50 км 9/0
[]
+10.3 +2.7 59 +9 +14 тепло 1012.2 1002.0
18 24.05 СЗ 4 50 км 9/0
[]
+7.7 +2.8 71 +4 +8 тепло 1012.1 1001.9 0.0 +11.3
19 24.05 С 3 50 км 9/0
[]
+8.1 +2.9 70 +6 +10 тепло 1011.9 1001.7
20 24.05 С 4 50 км 6/0
[]
+8.3 +2.0 64 +5 +8 тепло 1011.7 1001.5
21 24.05 С 3 50 км 9/0
[]
+6.6 +2.2 73 +4 +5 тепло 1011.5 1001.2
22 24.05 С 3 50 км 6/0
[]
+7.7 +2.0 67 +5 +6 тепло 1011.1 1000.9
23 24.05 С 3 50 км 9/0
[]
+7.7 +2.0 67 +5 +5 тепло 1010.8 1000.5
00 25.05 СЗ 2 50 км 9/0
[]
+4.8 +2.6 86 +2 +2 тепло 1010.4 1000.1
01 25.05 50 км 6/0
[]
+4.9 +2.3 83 1010.0 999.6
02 25.05 СЗ 3 45 км 9/0
[]
+3.2 +2.7 97 -1 -1 тепло 1009.7 999.3
03 25.05 С 5 50 км 6/0
[]
+2.7 +2.7 100 -3 -3 по сезону 1009.1 998.7
04 25.05 С 5 35 км 9/0
[]
+2.5 -1 -1 тепло 1008.4 998.0
05 25.05 30 км 9/0
[]
+2.2 1008.1 997.7
06 25.05 С 6 30 км 9/0
[]
+2.7 -1 -1 по сезону 1007.9 997.5 +2.1 +8.6
07 25.05 С 2 45 км 9/0
[]
+3.3 +2.7 96 0 0 тепло 1008.3 997.9
08 25.05 С 2 50 км 6/0
[]
+4.2 +2.5 89 +1 +2 тепло 1008.2 997.9
09 25.05 СЗ 1 35 км 6/0
[]
+3.1 +3.0 99 +3 +4 тепло 1008.2 997.9
10 25.05 С 2 50 км 6/0
[]
+6.2 +2.3 76 +4 +6 тепло 1008.3 998.0
11 25.05 СВ 1 50 км 6/0
[]
+7.2 +2.5 72 +6 +11 тепло 1008.3 998.1
12 25.05 С 4 н/о 1/0
[]
+7.3 +1.8 68 +4 +9 тепло 1008.3 998.1
13 25.05 С 3 50 км 6/0
[]
+8.8 +0.8 57 +7 +12 тепло 1008.7 998.5
14 25.05 С 3 50 км 6/0
[]
+10.3 +0.7 51 +9 +15 тепло 1008.8 998.7
15 25.05 С 3 50 км 9/0
[]
+12.3 +0.4 44 +11 +17 тепло 1008.9 998.8
16 25.05 С 2 50 км 4/0
[]
+14.7 -1.9 32 +15 +25 тепло 1008.8 998.9
18 25.05 СЗ 2 50 км 4/0
[]
+15.0 -1.6 32 +15 +23 тепло 1008.9 998.9 +2.4 +16.7
19 25.05 Ю 4 50 км 4/0
[]
+12.1 +1.0 47 +11 +15 тепло 1009.5 999.4
20 25.05 ЮЗ 2 50 км 1/0
[]
+12.6 +0.5 43 +12 +18 тепло 1009.6 999.6
21 25.05 Ю 5 50 км 1/0
[]
+12.7 -0.4 40 +11 +12 тепло 1009.7 999.7
22 25.05 Ю 4 50 км 6/0
[]
+10.7 +0.4 49 +9 +10 тепло 1009.9 999.8

 

Местоположение метеостанции Nuuk (Гренландия): широта 64.17 долгота -51.75 высота над уровнем моря 84 м.

В архиве по умолчанию представлена погода в Nuuk за последнюю неделю. Архивные данные за месяц целиком и за предыдущие месяцы, начиная с января 2011 года, Вы можете получить, выбрав интересующий диапазон дат из раскрывающегося списка и нажав кнопку "Ввод!".


*Определитесь, кто Вы:
робот инопланетянин человек

Внимание! Время в таблицах - всемирное. Для получения местного времени необходимо прибавить поправку, которая равна -3 ч.

Смотрите также архив погоды в соседних городах и на ближайших метеорологических станциях:

Погода в Mittarfik Nuuk (Гренландия) (5 км)
Погода в Sioralik (Гренландия) (102 км)
Погода в Maniitsoq Mittarfia (Гренландия) (150 км)
Погода в Ukiivik (Гренландия) (190 км)
Погода в Paamiut (Гренландия) (263 км)
Погода в Kangerlussuaq (Гренландия) (321 км)
Погода в Sisimiut Mittarfia (Гренландия) (322 км)
Погода в Kitsissut (Гренландия) (414 км)
Погода в Nunarsuit (Гренландия) (415 км)
Погода в Narsarsuaq (Гренландия) (467 км)

Пояснения к столбцам:

Ветер - указаны скорость ветра в м/с - средняя за 10 мин, порывы в срок и между сроками (в фигурных скобках) и направление, откуда дует ветер: С - северный, СВ - северо-восточный, В - восточный, ЮВ - юго-восточный, Ю - южный, ЮЗ - юго-западный, З - западный, СЗ - северо-западный.
Видимость - горизонтальная дальность видимости в метрах или километрах. При видимости от 1 до 10 км при отсутствии осадков обычно наблюдается дымка, при ухудшении видимости до 1 км и менее - туман. В сухую погоду видимость может ухудшаться дымом, пылью или мглою.
Явления - указаны атмосферные явления, наблюдавшиеся в срок или в последний час перед сроком; фигурными скобками обозначены явления, наблюдавшиеся между сроками (за 1-3 часа до срока); квадратными скобками обозначены град или гололедные отложения с указанием их диаметра в мм.
Облачность - указаны через наклонную черту общая и нижняя облачность в баллах и высота нижней границы облаков в метрах; квадратными скобками обозначены формы облаков: Ci - перистые, Cs - перисто-слоистые, Cc - перисто-кучевые, Ac - высококучевые, As - высокослоистые, Sc - слоисто-кучевые, Ns - слоисто-дождевые, Cu - кучевые, Cb - кучево-дождевые. Подробнее классификацию облаков см. в Атласе облаков (PDF).
T - Температура воздуха - температура, измеренная на высоте 2 м над землей.
Td - Температура точки росы - температура, при понижении до которой содержащийся в воздухе водяной пар достигнет насыщения.
f - Относительная влажность воздуха - влажноcть воздуха, измеренная на высоте 2 м над землей.
Te - Эффективная температура - температура, которую ощущает одетый по сезону человек в тени. Характеристика душности погоды. При расчете учитывается влияние влажности воздуха и скорости ветра на теплоощущения человека.
Tes - Эффективная температура на солнце - температура, которую ощущает человек, с поправкой на солнечный нагрев. Характеристика знойности погоды. Зависит от высоты солнца над горизонтом, облачности и скорости ветра. Ночью, в пасмурную погоду, а также при ветре 12 м/с и более поправка равна нулю.
P - Атмосферное давление - приведенное к уровню моря атмосферное давление.
Po - Атмосферное давление - измеренное на уровне метеостанции атмосферное давление.
Tmin - Минимальная температура - минимум температуры воздуха на высоте 2 м над землей.
Tmax - Максимальная температура - максимум температуры воздуха на высоте 2 м над землей.
R - Количество осадков - Количество выпавших осадков за период времени, мм. При наведении курсора мыши на число - период времени, за который выпало указанное количество осадков.
R24 - Количество осадков - Количество выпавших осадков за 24 часа, мм.
S - Снежный покров - Высота снежного покрова, см. При наведении курсора мыши на число - состояние снежного покрова и степень покрытия местности в баллах.